Roanoke, VA

1:12 PM EST on November 12, 2019 (GMT -0500)
Roanoke Regional-Woodrum

Weather History for KROA - October, 2019

Change the Weather History Date:

Wednesday, October 23, 2019

  Actual Average Record
Temperature  
Mean Temperature 54 °F 56 °F  
Max Temperature 66 °F 67 °F 84 °F (1941)
Min Temperature 42 °F 44 °F 26 °F (1987)
Degree Days  
Heating Degree Days 11 10  
Month to date heating degree days 102 161  
Since 1 July heating degree days 103 210  
Cooling Degree Days 0 0  
Month to date cooling degree days 73 18  
Year to date cooling degree days 1757 1204  
Growing Degree Days 4 (Base 50)    
Moisture  
Dew Point 36 °F    
Average Humidity 53    
Maximum Humidity 93    
Minimum Humidity 26    
Precipitation  
Precipitation 0.00 in 0.10 in 2.38 in (1971)
Month to date precipitation 3.85 2.11  
Year to date precipitation 35.91 34.13  
Snow  
Snow 0.00 in - - ()
Month to date snowfall 0.0  
Since 1 July snowfall T  
Since 1 September snowfall 0.0  
Snow Depth 0.00 in    
Sea Level Pressure  
Sea Level Pressure 30.13 in    
Wind  
Wind Speed 6 mph ()    
Max Wind Speed 21 mph    
Max Gust Speed 26 mph    
Visibility 10.0 miles    
Events      
T = Trace of Precipitation, MM = Missing Value Source: Averaged Metar Reports

Daily Weather History Graph

Daily Weather History Graph

Search for Another Location

Airport or City:

Astronomy

Oct. 23, 2019 Rise Set
Actual Time 7:35 AM EDT 6:32 PM EDT
Civil Twilight 7:08 AM EDT 6:59 PM EDT
Nautical Twilight 6:38 AM EDT 7:29 PM EDT
Astronomical Twilight 6:07 AM EDT 7:59 PM EDT
Moon 2:01 AM EDT (10/23) 4:13 PM EDT (10/23)
Length of Visible Light 11h 50m
Length of Day
10h 57m
Waning Crescent, 27% of the Moon is Illuminated
Oct 23
Waning Crescent
Oct 27
New
Nov 4
First Quarter
Nov 12
Full
Nov 19
Last Quarter

Hourly Weather History & Observations

Time (EDT) Temp. Dew Point Humidity Pressure Visibility Wind Dir Wind Speed Gust Speed Precip Events Conditions
12:54 AM 50.0 °F 48.0 °F 93% 29.95 in 10.0 mi SSE 3.5 mph - N/A   Clear
1:54 AM 53.1 °F 43.0 °F 69% 29.96 in 10.0 mi SSE 3.5 mph - N/A   Clear
2:54 AM 55.0 °F 39.0 °F 55% 29.98 in 10.0 mi WNW 13.8 mph 18.4 mph N/A   Clear
3:54 AM 51.1 °F 41.0 °F 68% 29.99 in 10.0 mi WSW 5.8 mph - N/A   Clear
5:54 AM 52.0 °F 37.9 °F 59% 30.04 in 10.0 mi West 5.8 mph - N/A   Clear
6:54 AM 50.0 °F 37.9 °F 63% 30.06 in 10.0 mi WNW 6.9 mph - N/A   Clear
7:54 AM 48.9 °F 39.0 °F 69% 30.10 in 10.0 mi West 4.6 mph - N/A   Clear
8:54 AM 52.0 °F 39.9 °F 63% 30.12 in 10.0 mi WSW 4.6 mph - N/A   Clear
9:54 AM 55.0 °F 39.9 °F 57% 30.14 in 10.0 mi West 8.1 mph - N/A   Partly Cloudy
10:54 AM 57.9 °F 39.0 °F 49% 30.14 in 10.0 mi Variable 6.9 mph - N/A   Partly Cloudy
11:54 AM 60.1 °F 30.0 °F 32% 30.16 in 10.0 mi NW 12.7 mph - N/A   Partly Cloudy
12:54 PM 63.0 °F 33.1 °F 33% 30.14 in 10.0 mi WNW 11.5 mph - N/A   Partly Cloudy
1:54 PM 63.0 °F 32.0 °F 31% 30.14 in 10.0 mi NW 15.0 mph - N/A   Clear
2:54 PM 64.0 °F 32.0 °F 30% 30.12 in 10.0 mi West 10.4 mph 18.4 mph N/A   Clear
3:54 PM 64.9 °F 30.0 °F 27% 30.14 in 10.0 mi West 9.2 mph - N/A   Clear
4:54 PM 66.0 °F 30.0 °F 26% 30.15 in 10.0 mi West 6.9 mph - N/A   Clear
5:54 PM 63.0 °F 30.9 °F 30% 30.16 in 10.0 mi WNW 6.9 mph - N/A   Clear
6:54 PM 55.0 °F 35.1 °F 47% 30.19 in 10.0 mi WNW 3.5 mph - N/A   Clear
7:54 PM 54.0 °F 33.1 °F 45% 30.22 in 10.0 mi WNW 4.6 mph - N/A   Clear
8:54 PM 48.9 °F 36.0 °F 61% 30.25 in 10.0 mi Calm Calm - N/A   Clear
9:54 PM 48.9 °F 37.0 °F 64% 30.25 in 10.0 mi NNE 4.6 mph - N/A   Clear
10:54 PM 44.1 °F 37.9 °F 79% 30.27 in 10.0 mi Calm Calm - N/A   Clear
11:54 PM 43.0 °F 37.0 °F 80% 30.27 in 10.0 mi Calm Calm - N/A   Clear